P/2005 J1 ( McNaught )

Japanese version
Home page
Updated on September 25, 2005

---------------------------------------------------------------------

* Profile

Discovery Date May 3, 2005
Magnitude 17.6 mag
Discoverer R. H. McNaught (Siding Spring)

* Orbital Elements

T 2005 Apr. 17.3074 TT                                  MPC
q   1.530155             (2000.0)            P               Q
n   0.1463292      Peri.  338.9237      -0.3245473      +0.7858930
a   3.566554       Node   268.8414      -0.7749511      -0.5399890
e   0.570971       Incl.   31.7662      -0.5423282      +0.3013040
P   6.74
>From 89 observations 2005 May 3-July 9.

* Finding Charts

* Magnitudes Graph

        m1 = 15.7 + 5 log d + 15.0 log r

---------------------------------------------------------------------

The orbital elements are published on M.P.E.C. 2005-N48.
The charts are made with StellaNavigator Ver.2.0 for Windows (AstroArts / ASCII).
The magnitudes graphs are made with Comet for Windows.

---------------------------------------------------------------------

Copyright(C) Seiichi Yoshida (comet@aerith.net). All rights reserved.